Location: Newark
(13.4899°N, 1.4745°W)
Time: 19:56:04
(UTC+00:00)

N. Korean satellite - Visible Passes

Search period start: 22 August 2019 00:00
Search period end: 01 September 2019 00:00
Orbit: 457 x 507 km, 97.2° (Epoch: 21 August)

Date Brightness Start Highest point End Pass type
(mag) Time Alt. Az. Time Alt. Az. Time Alt. Az.
25 Aug 9.5 05:10:38 10° NE 05:13:05 18° E 05:15:32 10° SE visible
28 Aug 8.3 05:27:45 10° NNE 05:30:58 35° E 05:34:07 10° SSE visible
29 Aug 9.7 05:03:56 10° ENE 05:05:47 14° E 05:07:38 10° SE visible
